Погода в Тихвине

Хотите узнать прогноз погоды в Тихвине? Тогда Вам сюда: Погода в Тихвине

Поиск расширенной информации на нашем сайте:

Полезная информация:

Новости сайта



02.01.2020
Опубликован Долгосрочный прогноз погоды по городам России и ближнего зарубежья на январь 2020 года.
Карты: Прогноз на январь и февраль 2020 года, Сравнение прогнозируемой аномалии приземной температуры воздуха на январь 2020 года по разным моделям.




Погода в Тихвине - сегодня

Время (UTC), дата Ветер
(°,м/с) 
Видим.   Явления Облачность Т
(°С)
Тd
(°С)
f(%) Тe
(°С)
Pmin
(гПа)
dP
(гПа)
Po
(мм)
O2
(г/м3)
Тmin Tmax R s Состояние
почвы
21 22.10.20 120 (ЮВ) 4000 м  слаб. дождь  10/10 300 м 
[Frnb|Ns]
+5.3 +5 98 +6  996.3  -2.6  742  292           
00 23.10.20 140 (ЮВ) 10 км  {дождь}  10/10 270 м 
[St]
+6.6 +6.3 98 +8  994.7  -1.5  740  290           
03 23.10.20 240 (ЮЗ) 10 км  в посл. час дождь  10/10 420 м 
[St]
+10 +9.2 95 +9  994.9  0.3  741  286  +4.4       
06 23.10.20 230 (ЮЗ) 2{10}  5000 м  слаб. морось{дождь}  10/10 300 м 
[St]
+8.9 +8.3 96 +9  996.7  1.6  742  288  +4.6       
09 23.10.20 220 (ЮЗ) 10 км  в посл. час дождь{морось}  10/10 600 м 
[Sc]
+10.2 +9.7 97 +11  995.8  -0.7  741  286           
12 23.10.20 230 (ЮЗ) 10 км  в посл. час дождь  10/10 540 м 
[Sc]
+11 +10.4 96 +13  995  -0.8  741  285           
15 23.10.20 200 (Ю) 10 км    10/10 600 м 
[Sc]
+10.2 +9.1 93 +10  994.5  -0.6  740  286         
18 23.10.20 230 (ЮЗ) 10 км    10/10 1170 м 
[Sc]
+9.3 +8.5 95 +9  994.6  0.2  740  287    +11.4     
21 23.10.20 310 (СЗ) 4000 м  слаб. дождь  10/10 400 м 
[Frnb|Ns]
+7.2 +6.5 95 +7  996.9  2.2  742  290           
00 24.10.20 280 (З) 10 км  {дождь}  10/10 660 м 
[Sc]
+3.5 +2.2 91 +3  1001.2  4.2  745  296           
03 24.10.20 300 (СЗ) 10 км    9/9 960 м 
[Sc]
+1.6 -0.3 87 +2  1003.5  2.2  747  299  +1.5       
06 24.10.20 220 (ЮЗ) 10 км    3/1 1000 м верхняя 
[Sc|Ci fib]
-0.2 -1.3 92 -1  1005.4  1.8  748  302  -0.5       
09 24.10.20 240 (ЮЗ) 10 км    4/4 1000 м 
[Sc]
+1.9 -0.8 82 +1  1006.1  0.8  749  300           
12 24.10.20 240 (ЮЗ) 10 км    8/8 960 м 
[Sc]
+5.8 -0.1 66 +6  1006.7  0.7  749  296           
15 24.10.20 210 (ЮЗ) 10 км    10/10 1410 м 
[Sc]
+3.1 +0 80 +4  1006.8  749  299           
18 24.10.20 200 (Ю) 10 км    10/0 средняя 
[Ac und]
+1.5 -0.7 85 +2  1007.1  0.2  749  300    +6       
21 24.10.20 210 (ЮЗ) 10 км    10/0 средняя 
[Ac und]
+1.6 -0.4 87 +2  1007.4  0.3  750  300           
00 25.10.20 180 (Ю) 10 км    4/0 средняя 
[Ac trans]
-0.1 -0.9 94 +1  1008  0.6  750  302           
03 25.10.20 200 (Ю) 10 км    10/10 1110 м 
[Sc]
+0.5 -0.1 96 +1  1008.4  0.3  750  302  -1.3         
06 25.10.20 090 (В) 6000 м  слаб. дождь  10/10 400 м 
[Frnb|Ns]
+1.2 +0.9 98 +2  1009.1  0.8  751  301  -1.3       
09 25.10.20 тихо ()   15000 м  в посл. час дождь  10/10 240 м 
[St]
+3.4 +3.1 98 +3  1010.3  1.3  752  299           
12 25.10.20 310 (СЗ) 10 км  {дождь}  10/10 300 м 
[St]
+4.7 +3.8 94 +6  1012.9  2.5  754  298           
15 25.10.20 180 (Ю) 0200 м  туман  4/0 средняя 
[Ac trans]
+1.5 +1.3 99 +2  1014.9  755  302         
18 25.10.20 тихо ()   0200 м  туман  ?/?  
-0.9 -1 99 -1  1016.5  1.5  756  306    +4.9     
21 25.10.20 тихо ()   0200 м  туман  ?/?  
-0.2 -0.3 99 -0  1017.9  1.4  758  305           
Время (UTC), дата Ветер
(°,м/с) 
Видим.   Явления Облачность Т
(°С)
Тd
(°С)
f(%) Тe
(°С)
Pmin
(гПа)
dP
(гПа)
Po
(мм)
O2
(г/м3)
Тmin Tmax R s Состояние
почвы

Для получения пояснительной информации подведите курсор к названию столбца.

ПОГОДА в Тихвине - архив

Всё, что Вы хотите узнать о погоде в Тихвине - удобно и подробно!

Выберите нужную дату (начиная с 1 января 2019* года) и нажмите кнопку "Найти".
Будут отображены архивные сводки погоды по пункту Тихвин, начиная с указанной даты.


Отображать данные в формате CSV (для использования в таблицах Excel)


Внимание! Наш архив погоды предназначен исключительно для личного некоммерческого использования в познавательных целях. Если Вам необходимы официальные справки о состоянии погоды (для производственных, юридических, коммерческих и т.п. целей), обращайтесь в органы Росгидромета.

*Примечание: данная дата относится к архиву по метеостанциям СССР (Россия, СНГ, Балтия).
Архив по метеостанциям Зарубежной Европы и Азии (кроме Китая) хранится 10 дней, по другим регионам земного шара (Китай, Африка, Америка, Австралия, Океания) - 1 день.

Тихвин - район местоположения метеостанции


Название, широта, долгота, высота метеостанции:
Тихвин 59.6°ш. 33.6°д. 61 м над ур. моря [Российская Федерация]

Дополнительная информация

В oтличие oт бoльшинства пoгoдных сайтoв мы публикуем пoдрoбную метеoинфoрмацию в детальнoм прoфессиoнальнoм фoрмате.

Характеристики температуры и влажнoсти вoздуха измеряются на высoте 2 м в тени вдали oт зданий и деревьев.
Скoрoсть ветра измеряется на высoте 10 м (на урoвне рoста челoвека скoрoсть ветра ниже в 1.5-2 раза). Если метеoстанция нахoдится в гoрoде или в лесу, тo скoрoсть ветра занижена на 2-4 м/с пo сравнению с oткрытым местoм. Скoрoсть ветра над акватoриями крупных рек и oзёр, а также на вершинах хoлмoв на 2-5 м/с выше, чем в oбычных услoвиях.
Атмoсфернoе давление в разных тoчках местнoсти мoжет значительнo oтличаться oт давления на метеoстанции, в зависимoсти oт услoвий рельефа (при пoдъёме на 10 м давление пoнижается примернo на 1 мм рт.ст.).